| time (UTC) | temp F | wind direction | speed MPH | gust MPH | rain 1hr in | rain 24hr in | rain mn in | humidity % | barometer mb |
| 20260507002423 | 50 | 43 | 0.0 | 1.0 | 0.00 | 0.00 | 0.00 | 99 | 1006.0 |
| 20260507001923 | 49 | 73 | 0.0 | 10.0 | 0.00 | 0.00 | 0.00 | 99 | 1006.0 |
| 20260507001423 | 49 | 67 | 2.0 | 10.0 | 0.00 | 0.00 | 0.00 | 99 | 1006.0 |
| 20260507000923 | 49 | 48 | 1.0 | 8.0 | 0.00 | 0.00 | 0.00 | 99 | 1006.0 |
| 20260507000423 | 49 | 71 | 0.0 | 4.0 | 0.00 | 0.00 | 0.00 | 99 | 1006.0 |
| 20260506235923 | 49 | 81 | 0.0 | 0.0 | 0.00 | 0.00 | 0.00 | 99 | 1006.0 |
| 20260506235423 | 49 | 43 | 0.0 | 0.0 | 0.00 | 0.00 | 0.00 | 99 | 1006.0 |
| 20260506234923 | 49 | 89 | 0.0 | 3.0 | 0.00 | 0.00 | 0.00 | 99 | 1005.2 |
| 20260506234423 | 49 | 83 | 0.0 | 3.0 | 0.00 | 0.00 | 0.00 | 99 | 1006.0 |
| 20260506233923 | 49 | 48 | 0.0 | 3.0 | 0.00 | 0.00 | 0.00 | 99 | 1005.2 |
| 20260506233423 | 50 | 54 | 0.0 | 3.0 | 0.00 | 0.00 | 0.00 | 99 | 1005.2 |
| 20260506232423 | 51 | 51 | 0.0 | 5.0 | 0.00 | 0.00 | 0.00 | 99 | 1005.0 |
| 20260506231923 | 51 | 78 | 0.0 | 3.0 | 0.00 | 0.00 | 0.00 | 99 | 1005.0 |
| 20260506231423 | 51 | 53 | 0.0 | 3.0 | 0.00 | 0.00 | 0.00 | 99 | 1005.0 |
| 20260506230423 | 0 | 66 | 0.0 | 3.0 | 0.00 | 0.00 | 0.00 | 99 | 1005.0 |
| 20260506225923 | 0 | 75 | 0.0 | 4.0 | 0.00 | 0.00 | 0.00 | 99 | 1005.0 |
| 20260506225423 | 0 | 45 | 1.0 | 5.0 | 0.00 | 0.00 | 0.00 | 99 | 1005.0 |
| 20260506224923 | 0 | 63 | 2.0 | 5.0 | 0.00 | 0.00 | 0.00 | 99 | 1005.0 |
| 20260506224423 | 0 | 53 | 1.0 | 5.0 | 0.00 | 0.00 | 0.00 | 99 | 1005.0 |
| 20260506223923 | 0 | 48 | 0.0 | 5.0 | 0.00 | 0.00 | 0.00 | 99 | 1005.0 |
| 20260506223423 | 0 | 76 | 0.0 | 4.0 | 0.00 | 0.00 | 0.00 | 99 | 1005.0 |
| 20260506222923 | 0 | 44 | 0.0 | 3.0 | 0.00 | 0.00 | 0.00 | 99 | 1005.0 |
| 20260506222423 | 0 | 51 | 1.0 | 3.0 | 0.00 | 0.00 | 0.00 | 99 | 1005.0 |
| 20260506221923 | 0 | 46 | 0.0 | 5.0 | 0.00 | 0.00 | 0.00 | 99 | 1004.2 |
| 20260506221423 | 0 | 87 | 0.0 | 5.0 | 0.00 | 0.00 | 0.00 | 99 | 1004.1 |
| 20260506220923 | 0 | 37 | 1.0 | 4.0 | 0.00 | 0.00 | 0.00 | 99 | 1004.1 |
| 20260506220423 | 61 | 85 | 1.0 | 5.0 | 0.00 | 0.00 | 0.00 | 99 | 1004.0 |
| 20260506215923 | 0 | 128 | 2.0 | 5.0 | 0.00 | 0.00 | 0.00 | 99 | 1004.0 |
| 20260506215423 | 0 | 102 | 0.0 | 2.0 | 0.00 | 0.00 | 0.00 | 99 | 1004.0 |
| 20260506214923 | 0 | 210 | 0.0 | 0.0 | 0.00 | 0.00 | 0.00 | 99 | 1004.0 |
| 20260506214423 | 0 | 223 | 0.0 | 2.0 | 0.00 | 0.00 | 0.00 | 99 | 1003.2 |
| 20260506213923 | 0 | 223 | 0.0 | 2.0 | 0.00 | 0.00 | 0.00 | 99 | 1004.0 |
| 20260506213423 | 63 | 227 | 0.0 | 1.0 | 0.00 | 0.00 | 0.00 | 99 | 1003.2 |
| 20260506212923 | 0 | 190 | 0.0 | 0.0 | 0.00 | 0.00 | 0.00 | 99 | 1003.2 |
| 20260506212423 | 63 | 207 | 0.0 | 0.0 | 0.00 | 0.00 | 0.00 | 99 | 1003.2 |
| 20260506211923 | 63 | 218 | 0.0 | 2.0 | 0.00 | 0.00 | 0.00 | 99 | 1004.0 |
| 20260506211423 | 63 | 235 | 0.0 | 2.0 | 0.00 | 0.00 | 0.00 | 99 | 1004.0 |
| 20260506210923 | 63 | 213 | 0.0 | 2.0 | 0.00 | 0.00 | 0.00 | 99 | 1003.2 |
| 20260506210423 | 63 | 225 | 0.0 | 0.0 | 0.00 | 0.00 | 0.00 | 99 | 1003.2 |
| 20260506205923 | 63 | 227 | 0.0 | 0.0 | 0.00 | 0.00 | 0.00 | 99 | 1003.1 |
| 20260506205423 | 63 | 231 | 0.0 | 0.0 | 0.00 | 0.00 | 0.00 | 99 | 1003.0 |
| 20260506204923 | 63 | 231 | 0.0 | 1.0 | 0.00 | 0.00 | 0.00 | 99 | 1003.0 |
| 20260506204423 | 63 | 235 | 0.0 | 3.0 | 0.00 | 0.00 | 0.00 | 99 | 1003.0 |
| 20260506203423 | 63 | 228 | 1.0 | 5.0 | 0.00 | 0.00 | 0.00 | 99 | 1003.1 |
| 20260506202923 | 63 | 235 | 1.0 | 5.0 | 0.00 | 0.00 | 0.00 | 99 | 1003.2 |
| 20260506202423 | 63 | 240 | 0.0 | 3.0 | 0.00 | 0.00 | 0.00 | 99 | 1003.2 |
| 20260506201923 | 64 | 183 | 0.0 | 3.0 | 0.00 | 0.00 | 0.00 | 99 | 1003.0 |
| 20260506201423 | 64 | 222 | 0.0 | 0.0 | 0.00 | 0.00 | 0.00 | 99 | 1003.1 |
| 20260506200923 | 64 | 210 | 0.0 | 0.0 | 0.00 | 0.00 | 0.00 | 99 | 1003.1 |
| 20260506200423 | 63 | 213 | 0.0 | 0.0 | 0.00 | 0.00 | 0.00 | 99 | 1003.2 |
| 20260506195923 | 63 | 215 | 0.0 | 0.0 | 0.00 | 0.00 | 0.00 | 99 | 1003.2 |
| 20260506195423 | 63 | 185 | 0.0 | 0.0 | 0.00 | 0.00 | 0.00 | 99 | 1003.2 |
| 20260506194923 | 64 | 235 | 0.0 | 1.0 | 0.00 | 0.00 | 0.00 | 99 | 1004.0 |
| 20260506194423 | 64 | 231 | 0.0 | 3.0 | 0.00 | 0.00 | 0.00 | 99 | 1004.0 |
| 20260506193923 | 64 | 230 | 1.0 | 3.0 | 0.00 | 0.00 | 0.00 | 99 | 1004.0 |
| 20260506193423 | 64 | 230 | 1.0 | 3.0 | 0.00 | 0.00 | 0.00 | 99 | 1003.2 |
| 20260506192923 | 64 | 237 | 1.0 | 2.0 | 0.00 | 0.00 | 0.00 | 99 | 1003.2 |
| 20260506192423 | 64 | 205 | 1.0 | 2.0 | 0.00 | 0.00 | 0.00 | 99 | 1004.0 |
| 20260506191923 | 64 | 233 | 1.0 | 2.0 | 0.00 | 0.00 | 0.00 | 99 | 1003.2 |
| 20260506191423 | 64 | 236 | 0.0 | 2.0 | 0.00 | 0.00 | 0.00 | 99 | 1004.0 |
| 20260506190923 | 63 | 222 | 0.0 | 2.0 | 0.00 | 0.00 | 0.00 | 99 | 1004.0 |
| 20260506190423 | 63 | 226 | 0.0 | 6.0 | 0.00 | 0.00 | 0.00 | 99 | 1004.0 |
| 20260506185923 | 63 | 183 | 2.0 | 6.0 | 0.00 | 0.00 | 0.00 | 99 | 1003.2 |
| 20260506185423 | 0 | 181 | 1.0 | 3.0 | 0.00 | 0.00 | 0.00 | 99 | 1004.0 |
| 20260506184923 | 0 | 225 | 1.0 | 3.0 | 0.00 | 0.00 | 0.00 | 99 | 1004.0 |
| 20260506184423 | 0 | 211 | 0.0 | 3.0 | 0.00 | 0.00 | 0.00 | 99 | 1004.0 |
| 20260506183923 | 0 | 230 | 1.0 | 3.0 | 0.00 | 0.00 | 0.00 | 99 | 1004.0 |
| 20260506183423 | 0 | 214 | 1.0 | 4.0 | 0.00 | 0.00 | 0.00 | 99 | 1004.0 |
| 20260506182923 | 0 | 226 | 2.0 | 4.0 | 0.00 | 0.00 | 0.00 | 99 | 1004.0 |
| 20260506182423 | 0 | 231 | 2.0 | 4.0 | 0.00 | 0.00 | 0.00 | 99 | 1004.0 |
| 20260506181923 | 0 | 240 | 1.0 | 5.0 | 0.00 | 0.00 | 0.00 | 99 | 1004.0 |
| 20260506181423 | 0 | 207 | 2.0 | 5.0 | 0.00 | 0.00 | 0.00 | 99 | 1004.0 |
| 20260506180923 | 63 | 226 | 1.0 | 4.0 | 0.00 | 0.00 | 0.00 | 99 | 1004.0 |
| 20260506180423 | 0 | 221 | 1.0 | 4.0 | 0.00 | 0.00 | 0.00 | 99 | 1004.0 |
| 20260506175923 | 0 | 231 | 1.0 | 3.0 | 0.00 | 0.00 | 0.00 | 99 | 1004.0 |
| 20260506175423 | 63 | 179 | 1.0 | 3.0 | 0.00 | 0.00 | 0.00 | 99 | 1004.0 |
| 20260506174923 | 63 | 219 | 2.0 | 5.0 | 0.00 | 0.00 | 0.00 | 99 | 1004.0 |
| 20260506174423 | 63 | 178 | 2.0 | 5.0 | 0.00 | 0.00 | 0.00 | 99 | 1004.0 |
| 20260506173923 | 63 | 267 | 2.0 | 5.0 | 0.00 | 0.00 | 0.00 | 99 | 1004.0 |
| 20260506173423 | 63 | 229 | 2.0 | 5.0 | 0.00 | 0.00 | 0.00 | 99 | 1004.0 |
| 20260506172923 | 63 | 221 | 2.0 | 8.0 | 0.00 | 0.00 | 0.00 | 99 | 1004.0 |
| 20260506171923 | 0 | 229 | 2.0 | 6.0 | 0.00 | 0.00 | 0.00 | 99 | 1004.0 |
| 20260506171423 | 0 | 234 | 2.0 | 6.0 | 0.00 | 0.00 | 0.00 | 99 | 1004.0 |
| 20260506170923 | 0 | 221 | 2.0 | 5.0 | 0.00 | 0.00 | 0.00 | 99 | 1004.0 |
| 20260506170423 | 0 | 223 | 1.0 | 4.0 | 0.00 | 0.00 | 0.00 | 99 | 1004.0 |
| 20260506165923 | 0 | 224 | 1.0 | 4.0 | 0.00 | 0.00 | 0.00 | 99 | 1004.0 |
| 20260506165423 | 0 | 228 | 0.0 | 0.0 | 0.00 | 0.00 | 0.00 | 99 | 1004.0 |
| 20260506164923 | 0 | 217 | 0.0 | 0.0 | 0.00 | 0.00 | 0.00 | 99 | 1004.0 |
| 20260506164423 | 0 | 221 | 0.0 | 0.0 | 0.00 | 0.00 | 0.00 | 99 | 1004.0 |
| 20260506163923 | 0 | 226 | 0.0 | 0.0 | 0.00 | 0.00 | 0.00 | 99 | 1004.0 |
| 20260506163423 | 0 | 224 | 0.0 | 0.0 | 0.00 | 0.00 | 0.00 | 99 | 1004.0 |
| 20260506162923 | 0 | 226 | 0.0 | 0.0 | 0.00 | 0.00 | 0.00 | 99 | 1004.1 |
| 20260506162423 | 0 | 204 | 0.0 | 0.0 | 0.00 | 0.00 | 0.00 | 99 | 1005.0 |
| 20260506161923 | 0 | 182 | 0.0 | 0.0 | 0.00 | 0.00 | 0.00 | 99 | 1005.0 |
| 20260506161423 | 0 | 175 | 0.0 | 0.0 | 0.00 | 0.00 | 0.00 | 99 | 1005.0 |
| 20260506160923 | 0 | 190 | 0.0 | 0.0 | 0.00 | 0.00 | 0.00 | 99 | 1004.2 |
| 20260506160423 | 0 | 239 | 0.0 | 0.0 | 0.00 | 0.00 | 0.00 | 99 | 1004.2 |
| 20260506155923 | 0 | 235 | 0.0 | 0.0 | 0.00 | 0.00 | 0.00 | 99 | 1005.0 |
| 20260506155423 | 60 | 220 | 0.0 | 0.0 | 0.00 | 0.00 | 0.00 | 99 | 1004.2 |
| 20260506154923 | 60 | 232 | 0.0 | 0.0 | 0.00 | 0.00 | 0.00 | 99 | 1005.0 |
| 20260506154423 | 60 | 324 | 0.0 | 0.0 | 0.00 | 0.00 | 0.00 | 99 | 1005.0 |
| 20260506153923 | 59 | 269 | 0.0 | 0.0 | 0.00 | 0.00 | 0.00 | 99 | 1005.0 |
| 20260506153423 | 59 | 265 | 0.0 | 0.0 | 0.00 | 0.00 | 0.00 | 99 | 1005.0 |
| 20260506152923 | 59 | 300 | 0.0 | 0.0 | 0.00 | 0.00 | 0.00 | 99 | 1005.0 |
| 20260506152423 | 59 | 279 | 0.0 | 0.0 | 0.00 | 0.00 | 0.00 | 99 | 1004.2 |
| 20260506151923 | 59 | 261 | 0.0 | 0.0 | 0.00 | 0.00 | 0.00 | 99 | 1005.0 |
| 20260506151422 | 59 | 273 | 0.0 | 0.0 | 0.00 | 0.00 | 0.00 | 99 | 1005.0 |
| 20260506150922 | 59 | 94 | 0.0 | 0.0 | 0.00 | 0.00 | 0.00 | 99 | 1005.0 |
| 20260506150422 | 58 | 60 | 0.0 | 0.0 | 0.00 | 0.00 | 0.00 | 99 | 1005.0 |
| 20260506145922 | 58 | 74 | 0.0 | 0.0 | 0.00 | 0.00 | 0.00 | 99 | 1005.0 |
| 20260506145422 | 58 | 160 | 0.0 | 0.0 | 0.00 | 0.00 | 0.00 | 99 | 1005.0 |
| 20260506144422 | 58 | 157 | 0.0 | 0.0 | 0.00 | 0.00 | 0.00 | 99 | 1005.0 |
| 20260506143922 | 58 | 41 | 0.0 | 0.0 | 0.00 | 0.00 | 0.00 | 99 | 1005.0 |
| 20260506143423 | 57 | 284 | 0.0 | 0.0 | 0.00 | 0.00 | 0.00 | 99 | 1005.0 |
| 20260506142922 | 57 | 334 | 0.0 | 0.0 | 0.00 | 0.00 | 0.00 | 99 | 1005.0 |
| 20260506142422 | 57 | 148 | 0.0 | 0.0 | 0.00 | 0.00 | 0.00 | 99 | 1005.0 |
| 20260506141922 | 57 | 94 | 0.0 | 0.0 | 0.00 | 0.00 | 0.00 | 99 | 1005.0 |
| 20260506141422 | 58 | 148 | 0.0 | 0.0 | 0.00 | 0.00 | 0.00 | 99 | 1005.0 |
| 20260506140922 | 58 | 131 | 0.0 | 0.0 | 0.00 | 0.00 | 0.00 | 99 | 1005.0 |
| 20260506140422 | 58 | 345 | 0.0 | 0.0 | 0.00 | 0.00 | 0.00 | 99 | 1005.2 |
| 20260506135922 | 58 | 340 | 0.0 | 0.0 | 0.00 | 0.00 | 0.00 | 99 | 1005.1 |
| 20260506135422 | 59 | 352 | 0.0 | 0.0 | 0.00 | 0.00 | 0.00 | 99 | 1005.0 |
| 20260506134922 | 59 | 245 | 0.0 | 0.0 | 0.00 | 0.00 | 0.00 | 99 | 1005.0 |
| 20260506134422 | 60 | 74 | 0.0 | 0.0 | 0.00 | 0.00 | 0.00 | 99 | 1005.0 |
| 20260506133922 | 61 | 67 | 0.0 | 0.0 | 0.00 | 0.00 | 0.00 | 99 | 1005.0 |
| 20260506133423 | 62 | 149 | 0.0 | 0.0 | 0.00 | 0.00 | 0.00 | 99 | 1005.0 |
| 20260506132922 | 62 | 150 | 0.0 | 0.0 | 0.00 | 0.00 | 0.00 | 99 | 1005.0 |
| 20260506132422 | 62 | 74 | 0.0 | 0.0 | 0.00 | 0.00 | 0.00 | 99 | 1005.0 |
| 20260506131922 | 62 | 91 | 0.0 | 0.0 | 0.00 | 0.00 | 0.00 | 99 | 1005.0 |
| 20260506131422 | 62 | 137 | 0.0 | 0.0 | 0.00 | 0.00 | 0.00 | 99 | 1005.0 |
| 20260506130922 | 62 | 107 | 0.0 | 0.0 | 0.00 | 0.00 | 0.00 | 99 | 1005.0 |
| 20260506130422 | 61 | 130 | 0.0 | 0.0 | 0.00 | 0.00 | 0.00 | 99 | 1005.0 |
| 20260506125922 | 60 | 338 | 0.0 | 0.0 | 0.00 | 0.00 | 0.00 | 99 | 1005.0 |
| 20260506125422 | 59 | 64 | 0.0 | 0.0 | 0.00 | 0.00 | 0.00 | 99 | 1005.0 |
| 20260506124922 | 58 | 254 | 0.0 | 0.0 | 0.00 | 0.00 | 0.00 | 99 | 1005.0 |
| 20260506124422 | 57 | 222 | 0.0 | 0.0 | 0.00 | 0.00 | 0.00 | 99 | 1005.0 |
| 20260506123922 | 57 | 160 | 0.0 | 0.0 | 0.00 | 0.00 | 0.00 | 99 | 1005.0 |
| 20260506123422 | 57 | 232 | 0.0 | 0.0 | 0.00 | 0.00 | 0.00 | 99 | 1005.0 |
| 20260506122922 | 56 | 59 | 0.0 | 0.0 | 0.00 | 0.00 | 0.00 | 99 | 1005.0 |
| 20260506122422 | 56 | 30 | 0.0 | 0.0 | 0.00 | 0.00 | 0.00 | 99 | 1005.1 |
| 20260506121922 | 56 | 349 | 0.0 | 0.0 | 0.00 | 0.00 | 0.00 | 99 | 1006.0 |
| 20260506121422 | 56 | 104 | 0.0 | 0.0 | 0.00 | 0.00 | 0.00 | 99 | 1005.2 |
| 20260506120923 | 55 | 78 | 0.0 | 0.0 | 0.00 | 0.00 | 0.00 | 99 | 1005.2 |
| 20260506120422 | 55 | 76 | 0.0 | 0.0 | 0.00 | 0.00 | 0.00 | 99 | 1006.0 |
| 20260506115922 | 55 | 88 | 0.0 | 0.0 | 0.00 | 0.00 | 0.00 | 99 | 1005.2 |
| 20260506115422 | 55 | 102 | 0.0 | 0.0 | 0.00 | 0.00 | 0.00 | 99 | 1006.0 |
| 20260506114922 | 55 | 94 | 0.0 | 0.0 | 0.00 | 0.00 | 0.00 | 99 | 1006.0 |
| 20260506114422 | 55 | 90 | 0.0 | 0.0 | 0.00 | 0.00 | 0.00 | 99 | 1005.2 |
| 20260506113922 | 55 | 123 | 0.0 | 0.0 | 0.00 | 0.00 | 0.00 | 99 | 1005.1 |
| 20260506113422 | 55 | 129 | 0.0 | 0.0 | 0.00 | 0.00 | 0.00 | 99 | 1005.1 |
| 20260506112922 | 55 | 131 | 0.0 | 0.0 | 0.00 | 0.00 | 0.00 | 99 | 1005.1 |
| 20260506112422 | 54 | 290 | 0.0 | 0.0 | 0.00 | 0.00 | 0.00 | 99 | 1005.1 |
| 20260506111922 | 54 | 288 | 0.0 | 0.0 | 0.00 | 0.00 | 0.00 | 99 | 1005.0 |
| 20260506111422 | 54 | 135 | 0.0 | 0.0 | 0.00 | 0.00 | 0.00 | 99 | 1005.0 |
| 20260506110922 | 54 | 180 | 0.0 | 0.0 | 0.00 | 0.00 | 0.00 | 99 | 1005.0 |
| 20260506110422 | 53 | 175 | 0.0 | 0.0 | 0.00 | 0.00 | 0.00 | 99 | 1005.0 |
| 20260506105422 | 53 | 139 | 0.0 | 0.0 | 0.00 | 0.00 | 0.00 | 99 | 1005.2 |
| 20260506104922 | 53 | 301 | 0.0 | 0.0 | 0.00 | 0.00 | 0.00 | 99 | 1005.1 |
| 20260506103922 | 52 | 123 | 0.0 | 0.0 | 0.00 | 0.00 | 0.00 | 99 | 1005.0 |
| 20260506103422 | 52 | 183 | 0.0 | 0.0 | 0.00 | 0.00 | 0.00 | 99 | 1005.0 |
| 20260506102922 | 52 | 103 | 0.0 | 0.0 | 0.00 | 0.00 | 0.00 | 99 | 1005.0 |
| 20260506102422 | 52 | 133 | 0.0 | 0.0 | 0.00 | 0.00 | 0.00 | 99 | 1005.0 |
| 20260506101922 | 52 | 191 | 0.0 | 0.0 | 0.00 | 0.00 | 0.00 | 99 | 1005.0 |
| 20260506101422 | 52 | 142 | 0.0 | 0.0 | 0.00 | 0.00 | 0.00 | 99 | 1005.0 |
| 20260506100922 | 52 | 171 | 0.0 | 0.0 | 0.00 | 0.00 | 0.00 | 99 | 1005.0 |
| 20260506100422 | 51 | 104 | 0.0 | 0.0 | 0.00 | 0.00 | 0.00 | 99 | 1005.0 |
| 20260506095922 | 51 | 157 | 0.0 | 0.0 | 0.00 | 0.00 | 0.00 | 99 | 1005.0 |
| 20260506095422 | 51 | 135 | 0.0 | 0.0 | 0.00 | 0.00 | 0.00 | 99 | 1005.0 |
| 20260506094922 | 51 | 147 | 0.0 | 0.0 | 0.00 | 0.00 | 0.00 | 99 | 1005.0 |
| 20260506094422 | 51 | 146 | 0.0 | 0.0 | 0.00 | 0.00 | 0.00 | 99 | 1005.0 |
| 20260506093922 | 51 | 211 | 0.0 | 0.0 | 0.00 | 0.00 | 0.00 | 99 | 1005.0 |
| 20260506093422 | 51 | 184 | 0.0 | 0.0 | 0.00 | 0.00 | 0.00 | 99 | 1005.0 |
| 20260506092922 | 51 | 186 | 0.0 | 0.0 | 0.00 | 0.00 | 0.00 | 99 | 1005.0 |
| 20260506092422 | 51 | 180 | 0.0 | 0.0 | 0.00 | 0.00 | 0.00 | 99 | 1005.0 |
| 20260506091922 | 51 | 180 | 0.0 | 0.0 | 0.00 | 0.00 | 0.00 | 99 | 1005.0 |
| 20260506091422 | 51 | 180 | 0.0 | 0.0 | 0.00 | 0.00 | 0.00 | 99 | 1005.0 |
| 20260506090922 | 51 | 180 | 0.0 | 0.0 | 0.00 | 0.00 | 0.00 | 99 | 1005.0 |
| 20260506090422 | 51 | 152 | 0.0 | 0.0 | 0.00 | 0.00 | 0.00 | 99 | 1005.0 |
| 20260506085922 | 51 | 161 | 0.0 | 0.0 | 0.00 | 0.00 | 0.00 | 99 | 1005.0 |
| 20260506085422 | 51 | 125 | 0.0 | 0.0 | 0.00 | 0.00 | 0.00 | 99 | 1005.0 |
| 20260506084922 | 51 | 135 | 0.0 | 0.0 | 0.00 | 0.00 | 0.00 | 99 | 1005.0 |
| 20260506084422 | 51 | 151 | 0.0 | 0.0 | 0.00 | 0.00 | 0.00 | 99 | 1005.1 |
| 20260506083922 | 51 | 180 | 0.0 | 0.0 | 0.00 | 0.00 | 0.00 | 99 | 1006.0 |
| 20260506083422 | 52 | 177 | 0.0 | 0.0 | 0.00 | 0.00 | 0.00 | 99 | 1006.0 |
| 20260506082922 | 52 | 157 | 0.0 | 0.0 | 0.00 | 0.00 | 0.00 | 99 | 1006.0 |
| 20260506082422 | 52 | 157 | 0.0 | 0.0 | 0.00 | 0.00 | 0.00 | 99 | 1006.0 |
| 20260506081922 | 52 | 178 | 0.0 | 0.0 | 0.00 | 0.00 | 0.00 | 99 | 1006.0 |
| 20260506081422 | 52 | 180 | 0.0 | 0.0 | 0.00 | 0.00 | 0.00 | 99 | 1006.0 |
| 20260506080922 | 52 | 164 | 0.0 | 0.0 | 0.00 | 0.00 | 0.00 | 99 | 1006.0 |
| 20260506080422 | 52 | 135 | 0.0 | 0.0 | 0.00 | 0.00 | 0.00 | 99 | 1005.2 |
| 20260506073422 | 54 | 135 | 0.0 | 0.0 | 0.00 | 0.00 | 0.00 | 99 | 1006.0 |
| 20260506072922 | 54 | 135 | 0.0 | 0.0 | 0.00 | 0.00 | 0.00 | 99 | 1006.0 |
| 20260506072422 | 55 | 135 | 0.0 | 0.0 | 0.00 | 0.00 | 0.00 | 99 | 1006.0 |
| 20260506071922 | 55 | 168 | 0.0 | 0.0 | 0.00 | 0.00 | 0.00 | 99 | 1006.0 |
| 20260506071422 | 55 | 128 | 0.0 | 0.0 | 0.00 | 0.00 | 0.00 | 99 | 1006.0 |
| 20260506070922 | 55 | 147 | 0.0 | 0.0 | 0.00 | 0.00 | 0.00 | 99 | 1006.0 |
| 20260506070422 | 55 | 150 | 0.0 | 0.0 | 0.00 | 0.00 | 0.00 | 99 | 1006.0 |
| 20260506062422 | 55 | 137 | 0.0 | 0.0 | 0.00 | 0.00 | 0.00 | 99 | 1006.0 |
| 20260506061922 | 56 | 172 | 0.0 | 0.0 | 0.00 | 0.00 | 0.00 | 99 | 1006.0 |
| 20260506061422 | 56 | 257 | 0.0 | 0.0 | 0.00 | 0.00 | 0.00 | 99 | 1006.0 |
| 20260506060922 | 56 | 270 | 0.0 | 0.0 | 0.00 | 0.00 | 0.00 | 99 | 1006.0 |
| 20260506060422 | 56 | 270 | 0.0 | 0.0 | 0.00 | 0.00 | 0.00 | 99 | 1006.0 |
| 20260506050922 | 57 | 112 | 0.0 | 0.0 | 0.00 | 0.00 | 0.00 | 99 | 1006.0 |
| 20260506050422 | 57 | 178 | 0.0 | 0.0 | 0.00 | 0.00 | 0.00 | 99 | 1006.0 |
| 20260506044922 | 57 | 140 | 0.0 | 0.0 | 0.00 | 0.00 | 0.00 | 99 | 1006.0 |
| 20260506044422 | 57 | 138 | 0.0 | 0.0 | 0.00 | 0.00 | 0.00 | 99 | 1006.0 |
| 20260506043922 | 57 | 213 | 0.0 | 0.0 | 0.00 | 0.00 | 0.00 | 99 | 1006.0 |
| 20260506043422 | 58 | 137 | 0.0 | 0.0 | 0.00 | 0.00 | 0.00 | 99 | 1006.0 |
| 20260506042922 | 58 | 221 | 0.0 | 0.0 | 0.00 | 0.00 | 0.00 | 99 | 1006.0 |
| 20260506042422 | 58 | 264 | 0.0 | 0.0 | 0.00 | 0.00 | 0.00 | 99 | 1006.0 |
| 20260506041922 | 58 | 269 | 0.0 | 0.0 | 0.00 | 0.00 | 0.00 | 99 | 1006.0 |
| 20260506041422 | 58 | 135 | 0.0 | 0.0 | 0.00 | 0.00 | 0.00 | 99 | 1006.0 |
| 20260506040922 | 58 | 112 | 0.0 | 0.0 | 0.00 | 0.00 | 0.00 | 99 | 1006.0 |
| 20260506040422 | 58 | 166 | 0.0 | 0.0 | 0.00 | 0.00 | 0.00 | 99 | 1006.0 |
| 20260506035922 | 58 | 147 | 0.0 | 0.0 | 0.00 | 0.00 | 0.00 | 99 | 1006.0 |
| 20260506035422 | 58 | 270 | 0.0 | 0.0 | 0.00 | 0.00 | 0.00 | 99 | 1006.0 |
| 20260506034922 | 59 | 140 | 0.0 | 0.0 | 0.00 | 0.00 | 0.00 | 99 | 1006.0 |
| 20260506034422 | 59 | 123 | 0.0 | 0.0 | 0.00 | 0.00 | 0.00 | 99 | 1006.0 |
| 20260506033922 | 59 | 204 | 0.0 | 0.0 | 0.00 | 0.00 | 0.00 | 99 | 1006.0 |
| 20260506033422 | 59 | 158 | 0.0 | 0.0 | 0.00 | 0.00 | 0.00 | 99 | 1005.2 |
| 20260506032922 | 59 | 70 | 0.0 | 0.0 | 0.00 | 0.00 | 0.00 | 99 | 1006.0 |
| 20260506032422 | 59 | 70 | 0.0 | 0.0 | 0.00 | 0.00 | 0.00 | 99 | 1005.2 |
| 20260506031922 | 60 | 126 | 0.0 | 0.0 | 0.00 | 0.00 | 0.00 | 99 | 1005.2 |
| 20260506031422 | 60 | 133 | 0.0 | 0.0 | 0.00 | 0.00 | 0.00 | 99 | 1005.2 |
| 20260506030922 | 60 | 295 | 0.0 | 0.0 | 0.00 | 0.00 | 0.00 | 99 | 1006.0 |
| 20260506030422 | 60 | 180 | 0.0 | 0.0 | 0.00 | 0.00 | 0.00 | 99 | 1006.0 |
| 20260506025922 | 60 | 282 | 0.0 | 0.0 | 0.00 | 0.00 | 0.00 | 99 | 1006.0 |
| 20260506025422 | 60 | 225 | 0.0 | 0.0 | 0.00 | 0.00 | 0.00 | 99 | 1006.0 |
| 20260506024922 | 60 | 281 | 0.0 | 0.0 | 0.00 | 0.00 | 0.00 | 99 | 1005.2 |
| 20260506024422 | 60 | 60 | 0.0 | 0.0 | 0.00 | 0.00 | 0.00 | 99 | 1006.0 |
| 20260506023922 | 60 | 150 | 0.0 | 0.0 | 0.00 | 0.00 | 0.00 | 99 | 1006.0 |
| 20260506023422 | 60 | 152 | 0.0 | 0.0 | 0.00 | 0.00 | 0.00 | 99 | 1006.0 |
| 20260506022922 | 60 | 79 | 0.0 | 0.0 | 0.00 | 0.00 | 0.00 | 99 | 1006.0 |
| 20260506022422 | 60 | 120 | 0.0 | 0.0 | 0.00 | 0.00 | 0.00 | 99 | 1006.0 |
| 20260506021922 | 60 | 127 | 0.0 | 0.0 | 0.00 | 0.00 | 0.00 | 99 | 1005.1 |
| 20260506021422 | 60 | 275 | 0.0 | 0.0 | 0.00 | 0.00 | 0.00 | 99 | 1005.2 |
| 20260506020922 | 60 | 174 | 0.0 | 0.0 | 0.00 | 0.00 | 0.00 | 99 | 1005.1 |
| 20260506020422 | 61 | 142 | 0.0 | 0.0 | 0.00 | 0.00 | 0.00 | 99 | 1005.1 |
| 20260506015921 | 61 | 117 | 0.0 | 0.0 | 0.00 | 0.00 | 0.00 | 99 | 1005.0 |
| 20260506015422 | 62 | 168 | 0.0 | 0.0 | 0.00 | 0.00 | 0.00 | 99 | 1005.1 |
| 20260506014921 | 62 | 170 | 0.0 | 0.0 | 0.00 | 0.00 | 0.00 | 99 | 1005.2 |
| 20260506014421 | 63 | 30 | 0.0 | 0.0 | 0.00 | 0.00 | 0.00 | 99 | 1005.2 |
| 20260506013921 | 63 | 186 | 0.0 | 0.0 | 0.00 | 0.00 | 0.00 | 99 | 1006.0 |
| 20260506013422 | 63 | 187 | 0.0 | 0.0 | 0.00 | 0.00 | 0.00 | 99 | 1005.2 |
| 20260506012921 | 63 | 131 | 0.0 | 0.0 | 0.00 | 0.00 | 0.00 | 99 | 1005.1 |
| 20260506012421 | 63 | 172 | 0.0 | 0.0 | 0.00 | 0.00 | 0.00 | 99 | 1005.1 |
| 20260506011922 | 64 | 191 | 0.0 | 0.0 | 0.00 | 0.00 | 0.00 | 99 | 1005.0 |
| 20260506011421 | 64 | 21 | 0.0 | 0.0 | 0.00 | 0.00 | 0.00 | 99 | 1005.0 |
| 20260506010921 | 64 | 319 | 0.0 | 0.0 | 0.00 | 0.00 | 0.00 | 99 | 1005.0 |
| 20260506010421 | 64 | 154 | 0.0 | 0.0 | 0.00 | 0.00 | 0.00 | 99 | 1005.0 |
| 20260506005921 | 64 | 260 | 0.0 | 0.0 | 0.00 | 0.00 | 0.00 | 99 | 1005.0 |
| 20260506005421 | 64 | 228 | 0.0 | 0.0 | 0.00 | 0.00 | 0.00 | 99 | 1005.0 |
| 20260506004921 | 64 | 50 | 0.0 | 0.0 | 0.00 | 0.00 | 0.00 | 99 | 1005.0 |
| 20260506004421 | 65 | 101 | 0.0 | 0.0 | 0.00 | 0.00 | 0.00 | 99 | 1005.0 |
| 20260506003921 | 65 | 136 | 0.0 | 0.0 | 0.00 | 0.00 | 0.00 | 99 | 1005.0 |
| 20260506003422 | 65 | 130 | 0.0 | 0.0 | 0.00 | 0.00 | 0.00 | 99 | 1005.0 |
| 20260506002921 | 65 | 157 | 0.0 | 0.0 | 0.00 | 0.00 | 0.00 | 99 | 1005.0 |